Location: Brachbach
(49.1847°N, 9.7240°E)
Time: 12:48:27
(UTC+00:00)

AO-7 - Visible Passes

Search period start: 10 March 2026 00:00
Search period end: 20 March 2026 00:00
Orbit: 1440 x 1458 km, 102.0° (Epoch: 10 March)

Date Brightness Start Highest point End Pass type
(mag) Time Alt. Az. Time Alt. Az. Time Alt. Az.
10 Mar ? 04:54:22 10° NE 05:01:40 32° E 05:08:54 10° SSE visible
10 Mar ? 17:51:19 10° SSW 17:58:45 36° W 18:06:18 10° NNW visible
11 Mar ? 03:56:52 10° ENE 04:00:30 13° E 04:04:07 10° ESE visible
11 Mar ? 18:47:24 10° SW 18:52:31 17° W 18:57:40 10° NW visible
12 Mar ? 04:47:22 10° NE 04:54:25 29° E 05:01:24 10° SSE visible
12 Mar ? 17:43:54 10° SSW 17:51:32 39° W 17:59:16 10° NNW visible
13 Mar ? 03:50:37 10° ENE 03:53:09 11° E 03:55:42 10° E visible
13 Mar ? 18:39:37 10° SW 18:45:13 19° W 18:50:52 10° NW visible
14 Mar ? 04:40:24 10° NE 04:47:10 26° E 04:53:52 10° SE visible
15 Mar ? 18:31:54 10° SW 18:37:56 22° W 18:44:01 10° NW visible
16 Mar ? 04:33:27 10° NE 04:39:54 24° E 04:46:17 10° SE visible
17 Mar ? 18:24:15 10° SW 18:30:39 24° W 18:37:06 10° NW visible
18 Mar ? 04:26:33 10° NE 04:32:38 21° E 04:38:39 10° SE visible
18 Mar ? 19:24:36 10° W 19:24:43 10° W 19:24:50 10° W visible
19 Mar ? 18:16:41 10° SSW 18:23:22 26° W 18:30:09 10° NW visible
